Weather History for Canby, MN

Change the Weather History Date:

Friday, August 30, 2013

  Actual Average (KMML) Record (KMML)
Temperature  
Mean Temperature 75 °F -  
Max Temperature 84 °F 80 °F 95 °F (1961)
Min Temperature 66 °F 57 °F 44 °F (2003)
Cooling Degree Days 10    
Growing Degree Days 25 (Base 50)    
Moisture  
Dew Point 67 °F    
Average Humidity 79    
Maximum Humidity 96    
Minimum Humidity 53    
Precipitation  
Precipitation 0.00 in - - ()
Sea Level Pressure  
Sea Level Pressure 29.94 in    
Wind  
Wind Speed 6 mph (North)    
Max Wind Speed 10 mph    
Max Gust Speed -    
Visibility 9 miles    
Events      
Averages and records for this station are not official NWS values.
T = Trace of Precipitation, MM = Missing Value Source: NWS Daily Summary

Daily Weather History Graph

Daily Weather History Graph

Search for Another Location

Airport:

Trip Planner

Search our weather history database for the weather conditions in past years. The results will help you decide how hot, cold, wet, or windy it might be!

Date:

Astronomy

Aug. 30, 2013 Rise Set
Actual Time 6:45 AM CDT 8:04 PM CDT
Civil Twilight 6:15 AM CDT 8:35 PM CDT
Nautical Twilight 5:38 AM CDT 9:11 PM CDT
Astronomical Twilight 4:59 AM CDT 9:50 PM CDT
Moon 1:17 AM CDT (8/30) 4:28 PM CDT (8/30)
Length of Visible Light 14h 20m
Length of Day
13h 19m
Waning Crescent, 29% of the Moon is Illuminated
Aug 30
Waning Crescent
Sep 5
New
Sep 12
First Quarter
Sep 19
Full
Sep 26
Last Quarter

Hourly Weather History & Observations

Time (CDT) Temp. Heat Index Dew Point Humidity Pressure Visibility Wind Dir Wind Speed Gust Speed Precip Events Conditions
12:14 AM 79.7 °F - 71.2 °F 75% 29.92 in 10.0 mi NNW 9.2 mph - N/A   Overcast
12:33 AM 79.2 °F - 70.7 °F 75% 29.92 in 10.0 mi NNW 4.6 mph - N/A   Overcast
12:54 AM 78.4 °F - 70.2 °F 76% 29.92 in 10.0 mi NW 4.6 mph - N/A   Overcast
1:14 AM 77.5 °F - 70.3 °F 78% 29.92 in 10.0 mi NW 5.8 mph - N/A   Overcast
1:34 AM 76.3 °F - 69.1 °F 78% 29.92 in 10.0 mi NW 5.8 mph - N/A   Scattered Clouds
1:54 AM 75.0 °F - 69.1 °F 82% 29.92 in 10.0 mi NW 5.8 mph - N/A   Clear
2:14 AM 74.3 °F - 68.2 °F 81% 29.92 in 10.0 mi NW 8.1 mph - N/A   Clear
2:34 AM 73.6 °F - 68.0 °F 83% 29.92 in 10.0 mi NW 5.8 mph - N/A   Clear
2:53 AM 72.7 °F - 67.8 °F 85% 29.92 in 10.0 mi NW 6.9 mph - N/A   Clear
3:14 AM 71.8 °F - 67.5 °F 86% 29.92 in 10.0 mi NW 5.8 mph - N/A   Clear
3:34 AM 71.2 °F - 67.3 °F 87% 29.92 in 10.0 mi West 5.8 mph - N/A   Clear
3:54 AM 70.9 °F - 67.5 °F 89% 29.92 in 10.0 mi WNW 6.9 mph - N/A   Clear
4:14 AM 70.7 °F - 67.3 °F 89% 29.93 in 10.0 mi NW 5.8 mph - N/A   Clear
4:34 AM 70.0 °F - 67.1 °F 91% 29.94 in 10.0 mi NW 6.9 mph - N/A   Clear
4:53 AM 69.3 °F - 66.7 °F 92% 29.94 in 10.0 mi NW 6.9 mph - N/A   Clear
5:14 AM 68.9 °F - 66.7 °F 93% 29.94 in 10.0 mi NW 5.8 mph - N/A   Clear
5:34 AM 68.5 °F - 66.6 °F 93% 29.94 in 10.0 mi NW 5.8 mph - N/A   Clear
5:54 AM 68.0 °F - 66.2 °F 94% 29.94 in 7.0 mi NW 5.8 mph - N/A   Clear
6:13 AM 67.6 °F - 66.2 °F 95% 29.94 in 7.0 mi WNW 5.8 mph - N/A   Clear
6:34 AM 67.5 °F - 66.2 °F 96% 29.95 in 7.0 mi NW 6.9 mph - N/A   Clear
6:54 AM 67.5 °F - 66.2 °F 96% 29.95 in 5.0 mi NW 5.8 mph - N/A   Clear
7:14 AM 67.3 °F - 66.2 °F 96% 29.96 in 4.0 mi NW 4.6 mph - N/A   Scattered Clouds
7:34 AM 67.5 °F - 66.2 °F 96% 29.96 in 4.0 mi NW 6.9 mph - N/A   Mostly Cloudy
7:54 AM 68.2 °F - 67.1 °F 96% 29.96 in 4.0 mi NNW 6.9 mph - N/A   Overcast
8:14 AM 68.9 °F - 67.3 °F 95% 29.97 in 4.0 mi NW 6.9 mph - N/A   Overcast
8:34 AM 69.3 °F - 67.5 °F 94% 29.97 in 4.0 mi NW 6.9 mph - N/A   Overcast
8:53 AM 69.4 °F - 67.6 °F 94% 29.98 in 4.0 mi NNW 10.4 mph - N/A   Overcast
9:14 AM 69.8 °F - 68.0 °F 94% 29.98 in 3.0 mi NNW 9.2 mph - N/A   Overcast
9:34 AM 69.4 °F - 67.6 °F 94% 29.98 in 1.2 mi NNW 10.4 mph - N/A   Overcast
9:54 AM 69.3 °F - 68.0 °F 96% 29.99 in 0.8 mi NNW 9.2 mph - N/A   Overcast
10:13 AM 69.6 °F - 68.2 °F 95% 29.99 in 1.0 mi NNW 8.1 mph - N/A   Overcast
10:34 AM 70.0 °F - 68.4 °F 95% 29.99 in 2.0 mi NNW 9.2 mph - N/A   Overcast
10:54 AM 72.7 °F - 66.6 °F 81% 29.99 in 10.0 mi North 9.2 mph - N/A   Overcast
11:14 AM 73.8 °F - 66.0 °F 77% 29.99 in 10.0 mi North 8.1 mph - N/A   Mostly Cloudy
11:34 AM 74.8 °F - 66.0 °F 74% 29.99 in 10.0 mi North 8.1 mph - N/A   Mostly Cloudy
11:54 AM 76.1 °F - 65.7 °F 70% 29.99 in 10.0 mi North 8.1 mph - N/A   Mostly Cloudy
12:14 PM 75.9 °F - 65.1 °F 69% 29.98 in 10.0 mi NNE 6.9 mph - N/A   Scattered Clouds
12:34 PM 76.5 °F - 65.3 °F 68% 29.98 in 10.0 mi North 8.1 mph - N/A   Clear
12:54 PM 77.7 °F - 64.8 °F 64% 29.98 in 10.0 mi North 6.9 mph - N/A   Clear
1:14 PM 77.7 °F - 65.1 °F 65% 29.97 in 10.0 mi NNE 4.6 mph - N/A   Clear
1:34 PM 79.9 °F - 65.7 °F 62% 29.97 in 10.0 mi NNW 4.6 mph - N/A   Clear
1:54 PM 79.7 °F - 65.5 °F 62% 29.97 in 10.0 mi North 4.6 mph - N/A   Clear
2:14 PM 81.1 °F 83.2 °F 66.0 °F 60% 29.97 in 10.0 mi NNE 5.8 mph - N/A   Clear
2:33 PM 81.7 °F 83.8 °F 66.2 °F 59% 29.96 in 10.0 mi NE 4.6 mph - N/A   Clear
2:54 PM 83.1 °F 85.4 °F 66.6 °F 57% 29.96 in 10.0 mi NNE 5.8 mph - N/A   Clear
3:14 PM 83.5 °F 85.5 °F 65.7 °F 55% 29.96 in 10.0 mi NNE 8.1 mph - N/A   Clear
3:34 PM 83.7 °F 86.0 °F 66.4 °F 56% 29.95 in 10.0 mi NNE 6.9 mph - N/A   Clear
3:54 PM 83.5 °F 85.3 °F 65.5 °F 54% 29.95 in 10.0 mi NNE 5.8 mph - N/A   Clear
4:14 PM 84.2 °F 86.1 °F 65.3 °F 53% 29.94 in 10.0 mi NE 9.2 mph - N/A   Clear
4:34 PM 83.7 °F 85.3 °F 64.9 °F 53% 29.94 in 10.0 mi NNE 6.9 mph - N/A   Clear
4:54 PM 84.2 °F 86.6 °F 66.4 °F 55% 29.93 in 10.0 mi ENE 6.9 mph - N/A   Clear
5:14 PM 84.0 °F 85.8 °F 65.1 °F 53% 29.92 in 10.0 mi NE 5.8 mph - N/A   Clear
5:33 PM 82.8 °F 85.1 °F 66.6 °F 58% 29.92 in 10.0 mi ENE 5.8 mph - N/A   Clear
5:54 PM 82.2 °F 84.7 °F 66.9 °F 60% 29.92 in 10.0 mi East 5.8 mph - N/A   Clear
6:14 PM 81.5 °F 83.7 °F 66.4 °F 60% 29.92 in 10.0 mi ENE 5.8 mph - N/A   Clear
6:33 PM 81.0 °F 83.3 °F 66.7 °F 62% 29.91 in 10.0 mi ENE 4.6 mph - N/A   Clear
6:54 PM 80.1 °F 82.7 °F 68.0 °F 67% 29.91 in 10.0 mi East 3.5 mph - N/A   Clear
7:14 PM 78.8 °F - 68.5 °F 71% 29.91 in 10.0 mi East 3.5 mph - N/A   Clear
7:33 PM 77.4 °F - 68.0 °F 73% 29.91 in 10.0 mi East 3.5 mph - N/A   Clear
7:54 PM 75.7 °F - 68.2 °F 77% 29.91 in 10.0 mi Calm Calm - N/A   Clear
8:14 PM 74.1 °F - 68.4 °F 82% 29.90 in 10.0 mi Calm Calm - N/A   Clear
8:34 PM 73.4 °F - 68.4 °F 84% 29.90 in 10.0 mi Calm Calm - N/A   Clear
8:53 PM 70.3 °F - 67.1 °F 89% 29.89 in 10.0 mi ESE 3.5 mph - N/A   Clear
9:14 PM 70.3 °F - 66.7 °F 88% 29.90 in 10.0 mi ESE 3.5 mph - N/A   Clear
9:34 PM 70.7 °F - 67.1 °F 88% 29.90 in 10.0 mi Calm Calm - N/A   Clear
9:53 PM 69.1 °F - 66.2 °F 91% 29.91 in 10.0 mi Calm Calm - N/A   Clear
10:14 PM 67.8 °F - 64.9 °F 90% 29.90 in 10.0 mi Calm Calm - N/A   Clear
10:34 PM 67.1 °F - 64.6 °F 92% 29.90 in 10.0 mi Calm Calm - N/A   Clear
10:54 PM 67.5 °F - 65.5 °F 93% 29.91 in 10.0 mi Calm Calm - N/A   Clear
11:14 PM 66.4 °F - 64.4 °F 93% 29.90 in 10.0 mi Calm Calm - N/A   Clear
11:34 PM 66.6 °F - 64.2 °F 92% 29.90 in 10.0 mi SSE 3.5 mph - N/A   Clear
11:53 PM 68.2 °F - 64.9 °F 89% 29.90 in 10.0 mi SSE 4.6 mph - N/A   Clear